Preview of NWS' New Version of Forecast
This preview is not operational and should not be used for support decisions.

Regional Weather Roundup (RWR)

Issued by National Weather Service (NWS)

                            
000
ASUS45 KBOU 160910
RWRCO 

WEATHER ROUNDUP FOR COLORADO
NATIONAL WEATHER SERVICE DENVER/BOULDER CO
300 AM MDT SUN JUN 16 2019

NOTE: "FAIR" INDICATES FEW OR NO CLOUDS BELOW 12000 FEET WITH NO
SIGNIFICANT WEATHER AND/OR OBSTRUCTIONS TO VISIBILITY.

COZ001>005-013-030-031-161000-
...NORTHWEST COLORADO...
  
CITY           SKY/WX    TMP DP  RH WIND       PRES   REMARKS
CRAIG          MOCLDY    58  47  66 E9        30.07F                  
HAYDEN         LGT RAIN  54  49  83 E9        30.12S                  
MEEKER         FAIR      47  41  80 CALM      30.10S                  
RANGELY        CLOUDY    57  42  58 CALM      30.02S                  
RABBIT EARS PA NOT AVBL                                               
STEAMBOAT SPGS CLOUDY    55  45  69 W9        30.14R                  
WALDEN         CLOUDY    50  39  66 SE7       30.19F                  
$$

COZ006>008-011-161000-
...WEST CENTRAL VALLEYS...
  
CITY           SKY/WX    TMP DP  RH WIND       PRES   REMARKS
GRAND JUNCTION FAIR      61  40  45 E3        29.98R                  
MONTROSE       FAIR      57  38  48 S8        30.07S                  
EAGLE          FAIR      49  40  71 CALM      30.15F                  
RIFLE          FAIR      54  43  66 CALM      30.05S                  
DELTA          FAIR      60  40  47 E5        30.03S                  
NUCLA          FAIR      54  37  54 SE9       30.09F                  
$$

COZ017>023-064>068-161000-
...SOUTHWEST COLORADO...
  
CITY           SKY/WX    TMP DP  RH WIND       PRES   REMARKS
DURANGO        FAIR      47  39  74 CALM      30.13S                  
CORTEZ         FAIR      45  41  86 SE6       30.07F                  
PAGOSA SPRINGS FAIR      46  40  80 CALM      30.20S                  
TELLURIDE      FAIR      43  37  81 CALM      30.29S                  
WOLF CREEK PAS FAIR      39  32  75 CALM      30.47F                  
$$

COZ009-010-012-014-032>034-037-058>063-161000-
...CENTRAL COLORADO...
  
CITY           SKY/WX    TMP DP  RH WIND       PRES   REMARKS
ASPEN          FAIR      45  36  70 S5        30.18F                  
BUENA VISTA    FAIR      44  38  79 CALM      30.23S                  
COPPER MTN     FAIR      43  32  65 W8        30.42R                  
BERTHOUD PASS  FAIR      36  27  69 W14G22    30.42F                  
COTTONWOOD PAS FAIR      46  36  66 SW6       30.31F                  
GUNNISON       FAIR      43  38  82 NW3       30.23R                  
GRANBY         PTSUNNY   38  36  92 CALM      30.22S                  
KREMMLING      FAIR      41  37  87 CALM      30.17F                  
LEADVILLE      FAIR      34  32  92 CALM      30.31S                  
MONARCH PASS   MOCLDY    37  30  75 MISG      30.52S                  
SALIDA         FAIR      47  41  78 W3        30.29S                  
SUNLIGHT       FAIR      43  32  65 CALM      30.37F                  
WILKERSON PASS FAIR      41  32  70 SW6       30.40S                  
$$

COZ069>075-161000-
...SAN LUIS VALLEY/SANGRE DE CRISTO MOUNTAINS...
  
CITY           SKY/WX    TMP DP  RH WIND       PRES   REMARKS
ALAMOSA        FAIR      44  39  82 CALM      30.19S                  
DEL NORTE      FAIR      45  35  67 W7        30.22S                  
LA VETA PASS   NOT AVBL                                               
SAGUACHE       FAIR      45  36  70 CALM      30.22R                  
$$

COZ035-036-038>040-161000-
...NORTHERN COLORADO FRONT RANGE...
  
CITY           SKY/WX    TMP DP  RH WIND       PRES   REMARKS
DENVER INTL AP MOCLDY    53  47  79 SW9       30.03F                  
AURORA         MOCLDY    54  45  72 S5        30.06S                  
FRONT RANGE AP FAIR      56  47  72 SW9       30.05F                  
ERIE MUNI ARPT NOT AVBL                                               
BOULDER MUN AP FAIR      57  41  54 W6        30.01F                  
CENTENNIAL     FAIR      55  44  66 S9        30.07F                  
BROOMFIELD     FAIR      54  43  66 CALM      30.04F                  
FORT COLLINS     N/A     50  48  93 N7        30.03R                  
LONGMONT       FAIR      52  45  77 W5        30.03S                  
$$

COZ041-046-047-076>085-087-088-161000-
...PIKES PEAK/PALMER DIVIDE AND SOUTHERN FOOTHILLS...
  
CITY           SKY/WX    TMP DP  RH WIND       PRES   REMARKS
COLO. SPRINGS  MOCLDY    50  45  83 SW3       30.13R                  
A. F. ACADEMY  FAIR      44  43  98 NW5       30.12R                  
SCHRIEVER AFB  NOT AVBL                                               
CHEYENNE MTN   NOT AVBL                                               
ELLICOTT       NOT AVBL                                               
FALCON         FAIR      49  39  69 CALM      30.16S                  
FORT CARSON    NOT AVBL                                               
LIMON          FAIR      45  45 100 N3        30.07S                  
MONUMENT HILL  FAIR      43  37  81 S7        30.16S                  
CANON CITY     NOT AVBL                                               
WALSENBURG     NOT AVBL                                               
TRINIDAD       FAIR      50  47  89 W14       30.10F                  
$$

COZ042>045-048>051-090-091-161000-
...NORTHEAST COLORADO...
  
CITY           SKY/WX    TMP DP  RH WIND       PRES   REMARKS
GREELEY ARPT   FAIR      52  48  86 NW5       30.00F                  
AKRON          FAIR      56  51  84 S3        30.00S                  
BURLINGTON     FAIR      54  50  86 W7        30.00F                  
WRAY           FAIR      55  50  82 CALM      29.98S                  
YUMA           FAIR      50  41  71 SW6       29.99S                  
STERLING       FAIR      54  50  87 N3        29.97S                  
HOLYOKE        FAIR      55  50  82 S5        29.99R                  
FORT MORGAN    FAIR      57  46  66 CALM      30.00R                  
$$

COZ086-089-092>099-161000-
...SOUTHEAST COLORADO...
  
CITY           SKY/WX    TMP DP  RH WIND       PRES   REMARKS
PUEBLO         FAIR      52  50  93 NW8       30.05F                  
LA JUNTA       MOCLDY    58  53  84 CALM      30.01S                  
LAMAR          FAIR      59  56  89 W6        29.97S                  
SPRINGFIELD      N/A     56  55  97 NW10      30.00R                  
$$